EDT,Max TemperatureF,Mean TemperatureF,Min TemperatureF,Max Dew PointF,MeanDew PointF,Min DewpointF,Max Humidity, Mean Humidity, Min Humidity, Max Sea Level PressureIn, Mean Sea Level PressureIn, Min Sea Level PressureIn, Max VisibilityMiles, Mean VisibilityMiles, Min VisibilityMiles, Max Wind SpeedMPH, Mean Wind SpeedMPH, Max Gust SpeedMPH,PrecipitationIn, CloudCover, Events, WindDirDegrees
2013-8-1,76,70,64,66,62,58,87,78,68,30.01,29.90,29.84,10,10,7,23,10,31,0.02,7,Rain,169
2013-8-2,82,71,60,63,59,55,97,71,45,29.88,29.85,29.81,10,9,5,17,6,22,0.00,5,Fog,250
2013-8-3,81,71,61,59,55,48,90,63,36,29.88,29.85,29.81,10,10,10,21,9,30,0.00,4,,268
2013-8-4,77,67,57,59,54,49,80,62,43,29.97,29.89,29.84,10,10,10,25,8,32,T,4,Rain-Thunderstorm,288
2013-8-5,77,66,54,54,48,43,83,57,31,30.06,30.02,29.97,10,10,10,17,8,25,0.00,3,,301
2013-8-6,79,65,51,56,51,47,89,61,32,30.14,30.09,30.06,10,10,10,14,4,20,0.00,4,Fog,154
2013-8-7,77,70,63,63,59,56,84,72,60,30.14,30.10,30.03,10,10,10,20,10,28,0.00,7,,175
2013-8-8,85,78,70,70,67,64,90,74,58,30.02,29.99,29.96,10,10,10,20,11,25,0.01,7,,175
2013-8-9,79,74,69,72,70,65,93,84,74,29.96,29.86,29.79,10,7,2,16,7,21,0.76,7,Rain-Thunderstorm,198
2013-8-10,78,67,56,62,53,41,81,58,34,30.07,29.97,29.88,10,10,10,22,11,33,0.00,3,,286
2013-8-11,79,66,52,56,52,47,93,68,42,30.13,30.07,30.02,10,10,10,13,4,16,0.00,2,,267
2013-8-12,82,69,56,61,57,54,93,69,45,30.05,29.99,29.91,10,10,10,12,3,15,0.00,5,Fog,198
2013-8-13,76,69,61,66,63,55,93,83,73,29.89,29.78,29.67,10,7,2,24,6,30,1.21,7,Rain,210
2013-8-14,71,63,54,54,51,49,83,68,53,30.02,29.86,29.78,10,10,10,24,10,31,T,4,,282
2013-8-15,75,63,50,54,51,48,89,65,41,30.13,30.09,30.03,10,10,10,20,5,23,0.00,3,,264
2013-8-16,79,66,52,57,53,50,93,66,39,30.21,30.16,30.13,10,10,10,13,2,17,0.00,3,Fog,256
2013-8-17,81,68,54,58,54,48,100,67,33,30.31,30.27,30.22,10,10,6,8,2,10,0.00,4,Fog,341
2013-8-18,74,66,58,63,59,57,93,75,57,30.29,30.22,30.11,10,10,6,5,1,17,0.00,7,Fog,59
2013-8-19,82,72,61,62,59,54,97,67,37,30.11,30.05,30.00,10,10,6,13,4,18,0.00,6,Fog,230
2013-8-20,84,70,56,62,59,56,93,68,43,30.13,30.09,30.04,10,10,7,15,4,20,0.00,1,Fog,257
2013-8-21,88,74,59,66,62,59,97,68,39,30.18,30.12,30.03,10,10,6,13,3,17,0.00,2,Fog,204
2013-8-22,87,76,64,69,65,62,93,68,43,30.05,29.93,29.83,10,9,3,26,5,36,0.16,5,Fog-Rain-Thunderstorm,206
2013-8-23,77,68,58,66,56,47,90,63,36,30.18,30.02,29.91,10,10,8,15,8,21,0.00,3,,5
2013-8-24,78,65,52,54,50,44,93,62,30,30.35,30.30,30.20,10,10,10,9,2,15,0.00,1,Fog,353
2013-8-25,81,66,50,58,54,48,96,69,42,30.40,30.30,30.17,10,10,10,12,4,16,T,5,Fog-Rain,179
2013-8-26,78,72,65,68,64,57,97,81,64,30.17,30.02,29.89,10,8,2,10,6,18,0.19,8,Rain,176
2013-8-27,83,75,67,68,67,66,97,78,58,29.93,29.89,29.86,10,7,2,9,3,13,0.06,6,Rain,330
2013-8-28,87,75,63,68,65,63,93,71,48,29.94,29.89,29.83,10,6,0,12,1,15,0.00,4,Fog,299
2013-8-29,82,73,64,66,64,62,93,76,58,30.05,30.00,29.93,10,10,10,9,2,13,0.00,5,,137
2013-8-30,85,76,67,68,65,62,87,71,55,29.99,29.92,29.81,10,10,7,13,4,16,0.00,7,,176
2013-8-31,81,75,69,73,69,66,97,88,79,29.82,29.79,29.75,10,6,2,18,5,22,0.29,8,Rain-Thunderstorm,178